| time (UTC) | temp F | wind direction | speed knots | gust knots | rain 1hr in | rain 24hr in | rain mn in | humidity % | barometer mb |
| 20260505160600 | 58 | 236 | 2.6 | 11.3 | 0.00 | 0.00 | 0.00 | 32 | 1012.3 |
| 20260505153055 | 57 | 110 | 2.6 | 12.2 | 0.00 | 0.00 | 0.00 | 35 | 1012.3 |
| 20260505152552 | 56 | 107 | 4.3 | 12.2 | 0.00 | 0.00 | 0.00 | 36 | 1012.1 |
| 20260505152057 | 55 | 128 | 3.5 | 11.3 | 0.00 | 0.00 | 0.00 | 36 | 1012.0 |
| 20260505151554 | 56 | 94 | 3.5 | 10.4 | 0.00 | 0.00 | 0.00 | 36 | 1012.0 |
| 20260505151055 | 55 | 233 | 3.5 | 10.4 | 0.00 | 0.00 | 0.00 | 36 | 1012.1 |
| 20260505140549 | 53 | 121 | 1.7 | 7.0 | 0.00 | 0.00 | 0.00 | 41 | 1011.9 |
| 20260505124540 | 47 | 236 | 1.7 | 6.1 | 0.00 | 0.00 | 0.00 | 49 | 1011.7 |
| 20260505124038 | 47 | 144 | 1.7 | 6.1 | 0.00 | 0.00 | 0.00 | 49 | 1011.6 |
| 20260505123540 | 47 | 203 | 1.7 | 6.1 | 0.00 | 0.00 | 0.00 | 49 | 1011.5 |
| 20260505122034 | 47 | 187 | 2.6 | 7.8 | 0.00 | 0.00 | 0.00 | 49 | 1011.6 |
| 20260505121035 | 47 | 193 | 3.5 | 10.4 | 0.00 | 0.00 | 0.00 | 49 | 1011.5 |
| 20260505120539 | 47 | 201 | 3.5 | 10.4 | 0.00 | 0.00 | 0.00 | 49 | 1011.5 |
| 20260505115035 | 47 | 179 | 1.7 | 4.3 | 0.00 | 0.00 | 0.00 | 49 | 1011.8 |
| 20260505113540 | 47 | 217 | 0.9 | 5.2 | 0.00 | 0.00 | 0.00 | 49 | 1011.7 |
| 20260505113032 | 47 | 96 | 0.9 | 5.2 | 0.00 | 0.00 | 0.00 | 49 | 1011.8 |
| 20260505112020 | 48 | 178 | 1.7 | 4.3 | 0.00 | 0.00 | 0.00 | 48 | 1011.8 |
| 20260505111512 | 48 | 210 | 2.6 | 7.0 | 0.00 | 0.00 | 0.00 | 48 | 1011.8 |
| 20260505111009 | 48 | 194 | 2.6 | 7.0 | 0.00 | 0.00 | 0.00 | 48 | 1011.9 |
| 20260505110503 | 48 | 161 | 2.6 | 5.2 | 0.00 | 0.00 | 0.00 | 48 | 1011.9 |
| 20260505101915 | 48 | 88 | 1.7 | 7.8 | 0.00 | 0.00 | 0.00 | 47 | 1011.7 |
| 20260505101409 | 48 | 156 | 1.7 | 7.8 | 0.00 | 0.00 | 0.00 | 47 | 1011.7 |
| 20260505100905 | 48 | 154 | 1.7 | 6.1 | 0.00 | 0.00 | 0.00 | 46 | 1011.6 |
| 20260505100402 | 48 | 312 | 1.7 | 5.2 | 0.00 | 0.00 | 0.00 | 46 | 1011.7 |
| 20260505095846 | 48 | 103 | 1.7 | 5.2 | 0.00 | 0.00 | 0.00 | 46 | 1011.8 |
| 20260505095337 | 49 | 222 | 0.9 | 5.2 | 0.00 | 0.00 | 0.00 | 46 | 1011.8 |
| 20260505094831 | 49 | 228 | 0.9 | 6.1 | 0.00 | 0.00 | 0.00 | 45 | 1011.9 |
| 20260505094329 | 49 | 136 | 1.7 | 6.1 | 0.00 | 0.00 | 0.00 | 46 | 1011.9 |
| 20260505093822 | 49 | 101 | 1.7 | 7.0 | 0.00 | 0.00 | 0.00 | 45 | 1011.9 |
| 20260505093312 | 49 | 165 | 1.7 | 7.0 | 0.00 | 0.00 | 0.00 | 45 | 1011.9 |
| 20260505092810 | 49 | 218 | 1.7 | 5.2 | 0.00 | 0.00 | 0.00 | 45 | 1011.9 |
| 20260505092305 | 49 | 122 | 0.9 | 5.2 | 0.00 | 0.00 | 0.00 | 45 | 1011.9 |
| 20260505091755 | 49 | 238 | 0.9 | 6.1 | 0.00 | 0.00 | 0.00 | 44 | 1012.0 |
| 20260505090744 | 49 | 161 | 0.9 | 5.2 | 0.00 | 0.00 | 0.00 | 43 | 1012.1 |
| 20260505090237 | 49 | 226 | 0.9 | 4.3 | 0.00 | 0.00 | 0.00 | 42 | 1012.3 |
| 20260505085734 | 49 | 186 | 0.9 | 4.3 | 0.00 | 0.00 | 0.00 | 42 | 1012.5 |
| 20260505085227 | 49 | 163 | 1.7 | 6.1 | 0.00 | 0.00 | 0.00 | 41 | 1012.4 |
| 20260505084720 | 50 | 169 | 2.6 | 6.1 | 0.00 | 0.00 | 0.00 | 41 | 1012.4 |
| 20260505084213 | 50 | 193 | 1.7 | 5.2 | 0.00 | 0.00 | 0.00 | 41 | 1012.5 |
| 20260505083707 | 50 | 184 | 1.7 | 5.2 | 0.00 | 0.00 | 0.00 | 40 | 1012.5 |
| 20260505082656 | 51 | 116 | 1.7 | 6.1 | 0.00 | 0.00 | 0.00 | 40 | 1012.5 |
| 20260505082149 | 51 | 144 | 1.7 | 6.1 | 0.00 | 0.00 | 0.00 | 40 | 1012.6 |
| 20260505081643 | 51 | 127 | 1.7 | 5.2 | 0.00 | 0.00 | 0.00 | 40 | 1012.6 |
| 20260505081138 | 51 | 147 | 2.6 | 5.2 | 0.00 | 0.00 | 0.00 | 40 | 1012.6 |
| 20260505080633 | 51 | 238 | 2.6 | 7.0 | 0.00 | 0.00 | 0.00 | 40 | 1012.7 |
| 20260505080126 | 51 | 195 | 1.7 | 7.0 | 0.00 | 0.00 | 0.00 | 40 | 1012.8 |
| 20260505075113 | 51 | 200 | 2.6 | 7.8 | 0.00 | 0.00 | 0.00 | 39 | 1013.0 |
| 20260505074607 | 51 | 127 | 1.7 | 7.8 | 0.00 | 0.00 | 0.00 | 39 | 1012.9 |
| 20260505073049 | 51 | 236 | 1.7 | 7.0 | 0.00 | 0.00 | 0.00 | 38 | 1012.6 |
| 20260505072544 | 51 | 252 | 1.7 | 6.1 | 0.00 | 0.00 | 0.00 | 37 | 1012.6 |
| 20260505071531 | 52 | 141 | 3.5 | 8.7 | 0.00 | 0.00 | 0.00 | 36 | 1012.5 |
| 20260505071028 | 52 | 210 | 2.6 | 8.7 | 0.00 | 0.00 | 0.00 | 35 | 1012.6 |
| 20260505070519 | 52 | 131 | 3.5 | 10.4 | 0.00 | 0.00 | 0.00 | 34 | 1012.7 |
| 20260505070014 | 53 | 193 | 3.5 | 10.4 | 0.00 | 0.00 | 0.00 | 34 | 1012.9 |
| 20260505065001 | 53 | 210 | 4.3 | 10.4 | 0.00 | 0.00 | 0.00 | 33 | 1012.7 |
| 20260505064456 | 53 | 232 | 4.3 | 9.6 | 0.00 | 0.00 | 0.00 | 32 | 1012.6 |
| 20260505063446 | 53 | 183 | 2.6 | 10.4 | 0.00 | 0.00 | 0.00 | 33 | 1012.5 |
| 20260505062944 | 53 | 201 | 2.6 | 8.7 | 0.00 | 0.00 | 0.00 | 33 | 1012.5 |
| 20260505062443 | 53 | 216 | 1.7 | 7.8 | 0.00 | 0.00 | 0.00 | 32 | 1012.3 |
| 20260505061945 | 52 | 215 | 1.7 | 7.8 | 0.00 | 0.00 | 0.00 | 32 | 1012.3 |
| 20260505061445 | 53 | 166 | 0.9 | 4.3 | 0.00 | 0.00 | 0.00 | 31 | 1012.1 |
| 20260505060944 | 53 | 257 | 0.9 | 5.2 | 0.00 | 0.00 | 0.00 | 30 | 1012.3 |
| 20260505055944 | 53 | 156 | 2.6 | 7.8 | 0.00 | 0.00 | 0.00 | 29 | 1012.4 |
| 20260505055446 | 53 | 168 | 2.6 | 7.8 | 0.00 | 0.00 | 0.00 | 29 | 1012.5 |
| 20260505054944 | 53 | 191 | 1.7 | 6.1 | 0.00 | 0.00 | 0.00 | 28 | 1012.4 |
| 20260505054444 | 54 | 240 | 0.9 | 6.1 | 0.00 | 0.00 | 0.00 | 28 | 1012.5 |
| 20260505053946 | 54 | 203 | 1.7 | 6.1 | 0.00 | 0.00 | 0.00 | 27 | 1012.5 |
| 20260505053444 | 54 | 184 | 2.6 | 7.0 | 0.00 | 0.00 | 0.00 | 27 | 1012.5 |
| 20260505052944 | 54 | 141 | 2.6 | 7.0 | 0.00 | 0.00 | 0.00 | 27 | 1012.6 |
| 20260505051944 | 55 | 204 | 3.5 | 11.3 | 0.00 | 0.00 | 0.00 | 26 | 1012.6 |
| 20260505050946 | 56 | 161 | 6.1 | 17.4 | 0.00 | 0.00 | 0.00 | 24 | 1012.6 |
| 20260505050445 | 56 | 193 | 6.1 | 17.4 | 0.00 | 0.00 | 0.00 | 25 | 1012.6 |
| 20260505041446 | 57 | 62 | 5.2 | 13.0 | 0.00 | 0.00 | 0.00 | 18 | 1012.4 |
| 20260505040948 | 57 | 149 | 6.1 | 16.5 | 0.00 | 0.00 | 0.00 | 20 | 1012.5 |
| 20260505040444 | 57 | 186 | 7.0 | 16.5 | 0.00 | 0.00 | 0.00 | 17 | 1012.6 |
| 20260505035944 | 57 | 149 | 5.2 | 13.0 | 0.00 | 0.00 | 0.00 | 18 | 1012.6 |
| 20260505035444 | 57 | 199 | 5.2 | 13.0 | 0.00 | 0.00 | 0.00 | 18 | 1012.6 |
| 20260505034944 | 57 | 167 | 6.1 | 13.9 | 0.00 | 0.00 | 0.00 | 19 | 1012.5 |
| 20260505033440 | 58 | 204 | 5.2 | 11.3 | 0.00 | 0.00 | 0.00 | 19 | 1012.1 |
| 20260505032440 | 58 | 214 | 4.3 | 13.9 | 0.00 | 0.00 | 0.00 | 17 | 1012.3 |
| 20260505031942 | 58 | 242 | 6.1 | 15.6 | 0.00 | 0.00 | 0.00 | 15 | 1012.1 |
| 20260505031441 | 58 | 188 | 5.2 | 15.6 | 0.00 | 0.00 | 0.00 | 14 | 1011.9 |
| 20260505030940 | 58 | 233 | 4.3 | 13.0 | 0.00 | 0.00 | 0.00 | 13 | 1012.0 |
| 20260505030442 | 58 | 163 | 5.2 | 13.0 | 0.00 | 0.00 | 0.00 | 14 | 1011.9 |
| 20260505025941 | 58 | 165 | 5.2 | 12.2 | 0.00 | 0.00 | 0.00 | 15 | 1011.9 |
| 20260505025435 | 58 | 127 | 4.3 | 13.0 | 0.00 | 0.00 | 0.00 | 14 | 1011.9 |
| 20260505024936 | 58 | 203 | 2.6 | 13.0 | 0.00 | 0.00 | 0.00 | 14 | 1011.7 |
| 20260505024437 | 58 | 161 | 2.6 | 8.7 | 0.00 | 0.00 | 0.00 | 14 | 1011.8 |
| 20260505023437 | 58 | 139 | 3.5 | 7.0 | 0.00 | 0.00 | 0.00 | 16 | 1011.8 |
| 20260505022934 | 59 | 182 | 3.5 | 7.8 | 0.00 | 0.00 | 0.00 | 16 | 1011.7 |
| 20260505022435 | 59 | 193 | 4.3 | 12.2 | 0.00 | 0.00 | 0.00 | 16 | 1011.7 |
| 20260505021940 | 59 | 165 | 4.3 | 12.2 | 0.00 | 0.00 | 0.00 | 15 | 1011.7 |
| 20260505021435 | 59 | 210 | 2.6 | 9.6 | 0.00 | 0.00 | 0.00 | 16 | 1011.7 |
| 20260505020934 | 60 | 250 | 1.7 | 8.7 | 0.00 | 0.00 | 0.00 | 16 | 1011.6 |
| 20260505020429 | 60 | 236 | 1.7 | 7.0 | 0.00 | 0.00 | 0.00 | 15 | 1011.7 |
| 20260505015930 | 60 | 163 | 1.7 | 7.0 | 0.00 | 0.00 | 0.00 | 15 | 1011.7 |
| 20260505015425 | 60 | 152 | 2.6 | 7.8 | 0.00 | 0.00 | 0.00 | 15 | 1011.7 |
| 20260505014918 | 60 | 259 | 2.6 | 8.7 | 0.00 | 0.00 | 0.00 | 15 | 1011.8 |
| 20260505014417 | 60 | 103 | 3.5 | 8.7 | 0.00 | 0.00 | 0.00 | 14 | 1011.7 |
| 20260505013916 | 61 | 165 | 4.3 | 9.6 | 0.00 | 0.00 | 0.00 | 13 | 1011.7 |
| 20260505013416 | 61 | 203 | 4.3 | 9.6 | 0.00 | 0.00 | 0.00 | 13 | 1011.6 |
| 20260505012417 | 61 | 229 | 4.3 | 13.9 | 0.00 | 0.00 | 0.00 | 11 | 1011.6 |
| 20260505011916 | 61 | 136 | 4.3 | 13.9 | 0.00 | 0.00 | 0.00 | 11 | 1011.6 |
| 20260505011415 | 62 | 212 | 5.2 | 13.0 | 0.00 | 0.00 | 0.00 | 10 | 1011.7 |
| 20260505010915 | 62 | 167 | 6.1 | 13.9 | 0.00 | 0.00 | 0.00 | 9 | 1011.7 |
| 20260505005912 | 62 | 162 | 6.1 | 14.8 | 0.00 | 0.00 | 0.00 | 8 | 1011.6 |
| 20260505004411 | 64 | 169 | 2.6 | 12.2 | 0.00 | 0.00 | 0.00 | 7 | 1011.7 |
| 20260505003911 | 64 | 290 | 2.6 | 9.6 | 0.00 | 0.00 | 0.00 | 9 | 1011.7 |
| 20260505003413 | 65 | 252 | 3.5 | 10.4 | 0.00 | 0.00 | 0.00 | 10 | 1011.8 |
| 20260505002913 | 65 | 214 | 4.3 | 10.4 | 0.00 | 0.00 | 0.00 | 12 | 1011.6 |
| 20260505002408 | 65 | 124 | 4.3 | 11.3 | 0.00 | 0.00 | 0.00 | 7 | 1011.5 |
| 20260505001908 | 66 | 219 | 3.5 | 11.3 | 0.00 | 0.00 | 0.00 | 6 | 1011.7 |
| 20260505001410 | 66 | 214 | 2.6 | 9.6 | 0.00 | 0.00 | 0.00 | 5 | 1011.5 |
| 20260505000907 | 66 | 229 | 4.3 | 13.9 | 0.00 | 0.00 | 0.00 | 6 | 1011.6 |
| 20260505000406 | 66 | 156 | 3.5 | 13.9 | 0.00 | 0.00 | 0.00 | 6 | 1011.6 |
| 20260504235401 | 66 | 232 | 4.3 | 11.3 | 0.00 | 0.00 | 0.00 | 10 | 1011.6 |
| 20260504234903 | 66 | 124 | 5.2 | 11.3 | 0.00 | 0.00 | 0.00 | 12 | 1011.6 |
| 20260504234402 | 67 | 259 | 4.3 | 11.3 | 0.00 | 0.00 | 0.00 | 9 | 1011.6 |
| 20260504233901 | 67 | 89 | 3.5 | 11.3 | 0.00 | 0.00 | 0.00 | 6 | 1011.6 |
| 20260504233402 | 68 | 211 | 2.6 | 11.3 | 0.00 | 0.00 | 0.00 | 7 | 1011.5 |
| 20260504232902 | 68 | 267 | 2.6 | 8.7 | 0.00 | 0.00 | 0.00 | 8 | 1011.6 |
| 20260504232404 | 68 | 218 | 3.5 | 9.6 | 0.00 | 0.00 | 0.00 | 7 | 1011.5 |
| 20260504231901 | 67 | 191 | 3.5 | 9.6 | 0.00 | 0.00 | 0.00 | 7 | 1011.5 |
| 20260504231402 | 67 | 201 | 3.5 | 12.2 | 0.00 | 0.00 | 0.00 | 7 | 1011.5 |
| 20260504230901 | 67 | 200 | 5.2 | 12.2 | 0.00 | 0.00 | 0.00 | 7 | 1011.6 |
| 20260504225905 | 67 | 200 | 4.3 | 17.4 | 0.00 | 0.00 | 0.00 | 7 | 1011.8 |
| 20260504224349 | 67 | 249 | 3.5 | 10.4 | 0.00 | 0.00 | 0.00 | 10 | 1011.8 |
| 20260504223841 | 67 | 119 | 2.6 | 8.7 | 0.00 | 0.00 | 0.00 | 12 | 1011.8 |
| 20260504223335 | 67 | 197 | 3.5 | 15.6 | 0.00 | 0.00 | 0.00 | 15 | 1011.7 |
| 20260504222829 | 67 | 311 | 4.3 | 15.6 | 0.00 | 0.00 | 0.00 | 11 | 1011.8 |
| 20260504221818 | 67 | 139 | 3.5 | 11.3 | 0.00 | 0.00 | 0.00 | 13 | 1011.8 |
| 20260504221314 | 66 | 283 | 6.1 | 17.4 | 0.00 | 0.00 | 0.00 | 13 | 1011.8 |
| 20260504220806 | 66 | 158 | 6.1 | 17.4 | 0.00 | 0.00 | 0.00 | 12 | 1012.1 |
| 20260504220259 | 67 | 227 | 5.2 | 13.9 | 0.00 | 0.00 | 0.00 | 12 | 1011.9 |
| 20260504215754 | 67 | 150 | 5.2 | 12.2 | 0.00 | 0.00 | 0.00 | 12 | 1011.9 |
| 20260504215247 | 67 | 190 | 4.3 | 12.2 | 0.00 | 0.00 | 0.00 | 11 | 1012.1 |
| 20260504214744 | 67 | 208 | 5.2 | 17.4 | 0.00 | 0.00 | 0.00 | 12 | 1012.1 |
| 20260504214235 | 66 | 146 | 7.0 | 20.0 | 0.00 | 0.00 | 0.00 | 13 | 1012.0 |
| 20260504213730 | 66 | 106 | 7.0 | 20.0 | 0.00 | 0.00 | 0.00 | 13 | 1012.1 |
| 20260504213223 | 67 | 98 | 6.1 | 12.2 | 0.00 | 0.00 | 0.00 | 14 | 1012.1 |
| 20260504212718 | 66 | 219 | 6.1 | 16.5 | 0.00 | 0.00 | 0.00 | 15 | 1012.3 |
| 20260504211211 | 67 | 197 | 2.6 | 8.7 | 0.00 | 0.00 | 0.00 | 20 | 1012.5 |
| 20260504210711 | 66 | 198 | 4.3 | 20.0 | 0.00 | 0.00 | 0.00 | 20 | 1012.5 |
| 20260504210216 | 65 | 94 | 6.1 | 20.0 | 0.00 | 0.00 | 0.00 | 21 | 1012.7 |
| 20260504205710 | 65 | 208 | 5.2 | 16.5 | 0.00 | 0.00 | 0.00 | 22 | 1012.7 |
| 20260504205207 | 66 | 151 | 5.2 | 16.5 | 0.00 | 0.00 | 0.00 | 23 | 1012.7 |
| 20260504204205 | 66 | 250 | 5.2 | 12.2 | 0.00 | 0.00 | 0.00 | 25 | 1012.5 |
| 20260504203705 | 66 | 173 | 4.3 | 12.2 | 0.00 | 0.00 | 0.00 | 25 | 1012.5 |
| 20260504203208 | 66 | 82 | 4.3 | 13.0 | 0.00 | 0.00 | 0.00 | 25 | 1012.6 |
| 20260504202708 | 65 | 145 | 6.1 | 15.6 | 0.00 | 0.00 | 0.00 | 26 | 1012.3 |
| 20260504202206 | 64 | 196 | 7.0 | 21.7 | 0.00 | 0.00 | 0.00 | 28 | 1012.6 |
| 20260504201706 | 64 | 155 | 5.2 | 21.7 | 0.00 | 0.00 | 0.00 | 29 | 1012.6 |
| 20260504201210 | 64 | 101 | 4.3 | 12.2 | 0.00 | 0.00 | 0.00 | 29 | 1012.6 |
| 20260504200205 | 64 | 82 | 6.1 | 15.6 | 0.00 | 0.00 | 0.00 | 30 | 1012.7 |
| 20260504195707 | 64 | 125 | 6.1 | 20.0 | 0.00 | 0.00 | 0.00 | 30 | 1012.7 |
| 20260504195200 | 64 | 217 | 7.0 | 20.0 | 0.00 | 0.00 | 0.00 | 31 | 1012.9 |
| 20260504194148 | 64 | 233 | 5.2 | 14.8 | 0.00 | 0.00 | 0.00 | 32 | 1012.8 |
| 20260504191127 | 62 | 150 | 7.8 | 23.5 | 0.00 | 0.00 | 0.00 | 35 | 1013.3 |
| 20260504190626 | 62 | 229 | 6.1 | 20.0 | 0.00 | 0.00 | 0.00 | 35 | 1013.5 |
| 20260504190127 | 62 | 183 | 5.2 | 19.1 | 0.00 | 0.00 | 0.00 | 36 | 1013.6 |
| 20260504185127 | 62 | 135 | 5.2 | 13.9 | 0.00 | 0.00 | 0.00 | 37 | 1013.0 |
| 20260504184627 | 62 | 116 | 5.2 | 15.6 | 0.00 | 0.00 | 0.00 | 36 | 1013.3 |
| 20260504184129 | 62 | 278 | 6.1 | 18.2 | 0.00 | 0.00 | 0.00 | 36 | 1013.4 |
| 20260504183130 | 62 | 248 | 4.3 | 11.3 | 0.00 | 0.00 | 0.00 | 38 | 1013.4 |
| 20260504182627 | 62 | 148 | 3.5 | 10.4 | 0.00 | 0.00 | 0.00 | 37 | 1013.2 |
| 20260504182126 | 62 | 293 | 5.2 | 19.1 | 0.00 | 0.00 | 0.00 | 39 | 1013.4 |
| 20260504181628 | 61 | 35 | 7.8 | 19.1 | 0.00 | 0.00 | 0.00 | 40 | 1013.5 |
| 20260504181128 | 61 | 283 | 7.0 | 18.2 | 0.00 | 0.00 | 0.00 | 40 | 1013.4 |
| 20260504180627 | 61 | 174 | 6.1 | 22.6 | 0.00 | 0.00 | 0.00 | 40 | 1013.6 |
| 20260504180127 | 60 | 189 | 6.1 | 22.6 | 0.00 | 0.00 | 0.00 | 41 | 1013.3 |
| 20260504175628 | 60 | 137 | 7.0 | 21.7 | 0.00 | 0.00 | 0.00 | 41 | 1013.5 |
| 20260504175125 | 60 | 201 | 8.7 | 18.2 | 0.00 | 0.00 | 0.00 | 42 | 1013.3 |
| 20260504174625 | 60 | 172 | 8.7 | 29.5 | 0.00 | 0.00 | 0.00 | 43 | 1013.5 |
| 20260504174124 | 60 | 122 | 7.0 | 29.5 | 0.00 | 0.00 | 0.00 | 43 | 1013.3 |
| 20260504173624 | 60 | 185 | 7.0 | 15.6 | 0.00 | 0.00 | 0.00 | 42 | 1013.2 |
| 20260504173126 | 60 | 162 | 6.1 | 15.6 | 0.00 | 0.00 | 0.00 | 42 | 1013.3 |
| 20260504172624 | 60 | 164 | 6.1 | 13.9 | 0.00 | 0.00 | 0.00 | 42 | 1013.3 |
| 20260504172124 | 60 | 220 | 7.0 | 15.6 | 0.00 | 0.00 | 0.00 | 43 | 1013.0 |
| 20260504171625 | 59 | 170 | 7.0 | 15.6 | 0.00 | 0.00 | 0.00 | 43 | 1013.3 |
| 20260504171124 | 60 | 150 | 6.1 | 20.0 | 0.00 | 0.00 | 0.00 | 43 | 1012.9 |
| 20260504170624 | 60 | 234 | 7.0 | 20.0 | 0.00 | 0.00 | 0.00 | 42 | 1012.9 |
| 20260504170125 | 60 | 170 | 6.1 | 19.1 | 0.00 | 0.00 | 0.00 | 42 | 1013.2 |